Weather History for KVLD - August, 2013

Change the Weather History Date:

Friday, August 23, 2013

  Actual Average Record
Temperature  
Mean Temperature 82 °F 81 °F  
Max Temperature 93 °F 91 °F 102 °F (2011)
Min Temperature 71 °F 71 °F 33 °F (1996)
Cooling Degree Days 17 16  
Month to date cooling degree days 450 375  
Year to date cooling degree days 2133 1727  
Since 1 June cooling degree days 1571 1315  
Growing Degree Days 32 (Base 50)    
Moisture  
Dew Point 71 °F    
Average Humidity 68    
Maximum Humidity 90    
Minimum Humidity 46    
Precipitation  
Precipitation 0.45 in 0.17 in 1.09 in (2010)
Month to date precipitation 5.32 4.06  
Year to date precipitation 33.02 35.75  
Sea Level Pressure  
Sea Level Pressure 30.06 in    
Wind  
Wind Speed 3 mph (SE)    
Max Wind Speed 29 mph    
Max Gust Speed 36 mph    
Visibility 8 miles    
Events Rain , Thunderstorm    
T = Trace of Precipitation, MM = Missing Value Source: NWS Daily Summary

Daily Weather History Graph

Daily Weather History Graph

Search for Another Location

Airport or City:

Trip Planner

Search our weather history database for the weather conditions in past years. The results will help you decide how hot, cold, wet, or windy it might be!

Date:

Astronomy

Aug. 23, 2013 Rise Set
Actual Time 7:04 AM EDT 8:06 PM EDT
Civil Twilight 6:39 AM EDT 8:31 PM EDT
Nautical Twilight 6:09 AM EDT 9:00 PM EDT
Astronomical Twilight 5:39 AM EDT 9:31 PM EDT
Moon 9:42 PM EDT (8/23) 9:42 AM EDT (8/23)
Length of Visible Light 13h 51m
Length of Day
13h 02m
Waning Gibbous, 91% of the Moon is Illuminated
Aug 23
Waning Gibbous
Aug 28
Last Quarter
Sep 5
New
Sep 12
First Quarter
Sep 19
Full

Hourly Weather History & Observations

Time (EDT) Temp. Heat Index Dew Point Humidity Pressure Visibility Wind Dir Wind Speed Gust Speed Precip Events Conditions
12:53 AM 73.9 °F - 70.0 °F 87% 30.09 in 10.0 mi Calm Calm - N/A   Clear
1:53 AM 73.9 °F - 70.0 °F 87% 30.09 in 10.0 mi Calm Calm - N/A   Clear
2:53 AM 73.9 °F - 70.0 °F 87% 30.06 in 10.0 mi Calm Calm - N/A   Clear
3:53 AM 73.0 °F - 69.1 °F 87% 30.05 in 10.0 mi Calm Calm - N/A   Clear
4:53 AM 72.0 °F - 68.0 °F 87% 30.04 in 10.0 mi Calm Calm - N/A   Clear
5:53 AM 72.0 °F - 68.0 °F 87% 30.05 in 10.0 mi Calm Calm - N/A   Clear
6:53 AM 71.1 °F - 68.0 °F 90% 30.05 in 10.0 mi Calm Calm - N/A   Clear
7:53 AM 73.9 °F - 69.1 °F 85% 30.07 in 10.0 mi Calm Calm - N/A   Partly Cloudy
8:53 AM 79.0 °F - 71.1 °F 77% 30.08 in 10.0 mi Calm Calm - N/A   Partly Cloudy
9:53 AM 82.9 °F 88.0 °F 72.0 °F 69% 30.08 in 10.0 mi ENE 3.5 mph - N/A   Scattered Clouds
10:53 AM 84.9 °F 91.4 °F 73.0 °F 67% 30.09 in 10.0 mi SSE 3.5 mph - N/A   Scattered Clouds
11:29 AM 87.8 °F 93.8 °F 71.6 °F 58% 30.07 in 10.0 mi Calm Calm - N/A   Mostly Cloudy
11:53 AM 89.1 °F 97.0 °F 73.0 °F 59% 30.09 in 10.0 mi NE 3.5 mph - N/A   Mostly Cloudy
12:53 PM 90.0 °F 96.9 °F 72.0 °F 55% 30.07 in 10.0 mi Variable 4.6 mph - N/A   Mostly Cloudy
1:00 PM 89.6 °F 96.2 °F 71.6 °F 55% 30.05 in 10.0 mi North 4.6 mph - N/A   Scattered Clouds
1:53 PM 90.0 °F 96.4 °F 71.1 °F 54% 30.04 in 10.0 mi NNE 6.9 mph - N/A   Mostly Cloudy
2:53 PM 91.9 °F 98.4 °F 71.1 °F 50% 30.02 in 10.0 mi NNE 5.8 mph - N/A   Mostly Cloudy
3:53 PM 93.0 °F 99.0 °F 70.0 °F 47% 30.01 in 10.0 mi Variable 4.6 mph - N/A   Scattered Clouds
4:53 PM 89.1 °F 95.0 °F 71.1 °F 55% 30.04 in 10.0 mi SSE 4.6 mph - N/A   Mostly Cloudy
5:18 PM 75.2 °F - 69.8 °F 83% 30.05 in 2.5 mi South 20.7 mph 35.7 mph 0.06 in Rain , Thunderstorm Heavy Thunderstorms and Rain
5:23 PM 75.2 °F - 69.8 °F 83% 30.05 in 1.5 mi South 16.1 mph 31.1 mph 0.10 in Rain , Thunderstorm Heavy Thunderstorms and Rain
5:35 PM 75.2 °F - 71.6 °F 89% 30.06 in 2.0 mi SSE 12.7 mph 24.2 mph 0.17 in Rain Heavy Rain
5:41 PM 75.2 °F - 71.6 °F 89% 30.06 in 3.0 mi South 12.7 mph - 0.19 in Rain Heavy Rain
5:48 PM 75.2 °F - 71.6 °F 89% 30.06 in 2.0 mi SSE 11.5 mph - 0.20 in Rain Rain
5:53 PM 75.0 °F - 71.1 °F 87% 30.08 in 2.0 mi SSE 9.2 mph - 0.20 in Rain Rain
6:06 PM 75.2 °F - 71.6 °F 89% 30.06 in 2.0 mi SE 6.9 mph - 0.03 in Rain Rain
6:18 PM 75.2 °F - 71.6 °F 89% 30.06 in 6.0 mi SSE 5.8 mph - 0.05 in Rain Rain
6:53 PM 75.0 °F - 71.1 °F 87% 30.09 in 4.0 mi SE 5.8 mph - 0.09 in Rain Heavy Rain
7:53 PM 73.9 °F - 70.0 °F 87% 30.04 in 5.0 mi SSE 4.6 mph - 0.14 in Rain Rain
8:53 PM 73.9 °F - 70.0 °F 87% 30.04 in 10.0 mi South 5.8 mph - 0.02 in Rain Light Rain
9:53 PM 73.9 °F - 70.0 °F 87% 30.06 in 10.0 mi Calm Calm - 0.00 in   Partly Cloudy
10:53 PM 73.9 °F - 70.0 °F 87% 30.06 in 10.0 mi Calm Calm - N/A   Partly Cloudy
11:53 PM 73.9 °F - 70.0 °F 87% 30.09 in 10.0 mi North 4.6 mph - N/A   Partly Cloudy